Погода в Новоникольском

Россия / Тамбовская область     52°49′27″N   40°23′46″E
темп.,
°C
ветер,
м/с
пор.,
м/с
влажн.,
%
обл.,
%
осадки,
мм/ч
давл.,
гПа
погр.,
м
26 октября, вт
вт2600:00−1зюз34715 0.0 103276
03:00−1зюз37700 0.0 1032142
06:00−2юз487812 0.0 1031172
09:00+1юз5966100 0.0 1030279
12:00+5зюз694996 0.0 1029577
15:00+6зюз61047100 0.0 1028699
18:00+4юз41155100 0.0 1028291
21:00+3юз51355100 0.0 1027324
27 октября, ср
ср2700:00+3юз51356100 0.0 1026320
03:00+2юз51357100 0.0 1026317
06:00+2юз61358100 0.0 1024312
09:00+3юз61451100 0.0 1023428
12:00+8юз81337100 0.0 1021712
15:00+9юз8133715 0.0 10191013
18:00+7юз71450100 0.0 1018584
21:00+6зюз61287100 0.9 1018702
28 октября, чт
чт2800:00+6з51081100 0.1 1018513
03:00+5зюз51087100 0.1 1017370
06:00+4юз51088100 0.0 1017295
09:00+6юз51180100 0.0 1016402
12:00+7юз61388100 0.6 1015565
15:00+7зюз61291100 1.4 1013590
18:00+7зюз61293100 0.7 1013555
21:00+8зсз51293100 1.6 1013578
29 октября, пт
пт2900:00+9сз6129285 0.3 1014676
03:00+7с71180100 0.4 10191163
06:00+6с71175100 0.0 10231082
09:00+3ссв797218 0.0 1028662
12:00+4ссв67465 0.0 1030728
15:00+4св45400 0.0 1032731
18:00+2св24545 0.0 103470
21:000вюв22605 0.0 103526
30 октября, сб
сб3000:00−1ююв22635 0.0 103628
03:00−1ююз34635 0.0 103666
06:00−1юз34625 0.0 103664
09:00+1юз35525 0.0 1037174
12:00+6юз46365 0.0 1036419
15:00+7юз46355 0.0 1035445
18:00+3ююз47455 0.0 1035103
21:00+2ююз49468 0.0 1035146